#timestamp,LO_Frequency,Hit,StdDev 
1552968015.8,286046998.3,N
1552968035.7,286047000.7,N
1552968055.5,286047001.2,N
1552968075.3,286046999.8,N
1552968095.2,286047000.9,N
1552968115.0,286047001.2,N
1552968115.9,286047001.2,N
1552968135.8,286047000.1,N
1552968155.6,286047000.4,N
1552968175.4,286047001.0,N
1552968195.3,286046998.5,N
1552968215.1,286047000.1,N
1552968235.9,286046998.2,N
1552968255.7,286046997.2,N
1552968275.5,286046995.2,N
1552968295.4,286046993.8,N
1552968315.2,286046993.4,N
1552968335.0,286046998.0,N
1552968335.9,286046998.0,N
1552968355.8,286046997.0,N
1552968375.6,286046997.6,N
1552968395.5,286046995.3,N
1552968415.3,286046996.6,N
1552968435.1,286046999.0,N
1552968455.9,286046999.0,N
1552968475.7,286046998.5,N
1552968495.6,286047001.2,N
1552968515.4,286046999.9,N
1552968535.2,286046998.2,N
1552968555.1,286046998.3,N
1552968556.0,286046998.3,N
1552968575.8,286047000.2,N
1552968595.6,286047000.9,N
1552968615.5,286047002.2,N
1552968635.3,286047000.6,N
1552968655.2,286046996.5,N
1552968675.9,286046997.6,N
1552968695.7,286046997.5,N
1552968715.6,286046997.8,N
1552968735.4,286046995.0,N
1552968755.2,286046998.7,N
1552968775.1,286047000.9,N
1552968776.0,286047000.9,N
1552968795.8,286047001.0,N
1552968815.7,286047000.4,N
1552968835.5,286047002.4,N
1552968855.3,286047002.6,N
1552968875.2,286046999.8,N
1552968895.0,286047000.3,N
1552968895.9,286047000.3,N
1552968915.8,286046999.8,N
1552968935.6,286047000.9,N
1552968955.4,286047000.8,N
1552968975.3,286046998.2,N
1552968995.1,286046999.9,N
1552969015.8,286046999.9,N
1552969035.7,286047000.8,N
1552969055.5,286047000.3,N
1552969075.4,286047001.0,N
1552969095.2,286047000.2,N
1552969115.0,286047000.4,N
1552969115.9,286047000.4,N
1552969135.8,286047000.3,N
1552969155.6,286047000.9,N
1552969175.4,286047000.0,N
1552969195.3,286047002.5,N
1552969215.1,286047001.3,N
1552969235.9,286047003.8,N
1552969255.7,286047002.0,N
1552969275.5,286047002.0,N
1552969295.4,286047001.4,N
1552969315.2,286047001.5,N
1552969335.0,286047001.7,N
1552969335.9,286047001.7,N
1552969355.8,286047002.1,N
1552969375.6,286047002.2,N
1552969395.5,286047001.4,N
1552969415.3,286047001.4,N
1552969435.1,286047001.4,N
1552969455.9,286047002.2,N
1552969475.7,286047002.0,N
1552969495.5,286047001.0,N
1552969515.4,286046996.5,Y
1552969535.2,286046995.0,P
1552969555.1,286046997.7,N
1552969556.0,286046997.7,N
1552969575.8,286046997.8,N
1552969595.6,286046995.5,N
1552969615.5,286046995.1,N
1552969635.3,286046997.6,N
1552969655.2,286046998.9,N
1552969675.9,286046998.3,N
1552969695.7,286046998.5,N
1552969715.6,286046998.4,N
1552969735.4,286046998.4,N
1552969755.3,286046998.7,N
1552969775.1,286046999.6,N
1552969795.8,286046999.6,N
1552969815.7,286046999.4,N
1552969835.5,286046996.7,N
1552969855.4,286046996.7,N
1552969875.2,286046999.0,N
1552969895.0,286046996.7,N
1552969895.9,286046996.7,N
1552969915.8,286046996.9,N
1552969935.6,286046997.4,N
1552969955.5,286046998.9,N
1552969975.3,286046998.6,N
1552969995.1,286046998.1,N
1552970015.9,286046998.2,N
1552970035.7,286046998.9,N
1552970055.6,286046997.3,N
1552970075.4,286046995.1,Y
1552970095.2,286047001.0,P
1552970115.1,286047002.5,N
1552970116.0,286047002.5,N
1552970135.8,286047003.2,N
1552970155.7,286047003.0,N
1552970175.5,286047004.4,N
1552970195.3,286047001.4,N
1552970215.2,286047002.3,N
1552970235.0,286047001.0,N
1552970235.9,286047001.0,N
1552970255.7,286047000.4,N
1552970275.6,286047000.9,N
1552970295.4,286047002.7,N
1552970315.3,286047000.2,N
1552970335.1,286047000.6,N
1552970355.8,286047001.1,N
1552970375.7,286047000.9,N
1552970395.5,286046998.5,N
1552970415.4,286047001.1,N
1552970435.2,286046999.9,N
1552970455.0,286047001.4,N
1552970455.9,286047001.4,N
1552970475.8,286047002.2,N
1552970495.6,286047001.4,N
1552970515.4,286047001.8,N
1552970535.3,286047002.0,N
1552970555.1,286047001.9,N
1552970575.9,286047002.3,N
1552970595.7,286047000.6,N
1552970615.5,286047000.5,N
1552970635.4,286047001.4,N
1552970655.2,286047004.1,Y
1552970675.1,286047002.0,P
1552970676.0,286047002.0,P
1552970695.8,286047011.9,P
1552970715.6,286047002.4,N
1552970735.5,286047002.0,N
1552970755.3,286047002.4,N
1552970775.2,286047000.2,N
1552970795.9,286047002.0,N
1552970815.7,286047002.4,N
1552970835.6,286047000.9,N
1552970855.4,286047001.2,N
1552970875.3,286046997.0,N
1552970895.1,286046999.3,N
1552970896.0,286046999.3,N
1552970915.8,286047000.7,N
1552970935.7,286047000.9,N
1552970955.5,286047002.5,N
1552970975.4,286046998.7,N
1552970995.2,286046998.7,N
1552971015.0,286047000.6,N
1552971015.9,286047000.6,N
1552971035.8,286046998.3,N
1552971055.6,286046998.6,N
1552971075.4,286047000.7,N
1552971095.3,286047001.1,N
1552971115.1,286046998.3,N
1552971135.9,286046998.8,N
1552971155.7,286047000.5,N
1552971175.5,286047002.5,N
1552971195.4,286047002.7,N
1552971215.2,286047000.4,N
1552971235.0,286047000.0,N
1552971235.9,286047000.0,N
1552971255.8,286047000.8,N
1552971275.6,286046999.2,N
1552971295.5,286046999.0,N
1552971315.3,286047000.6,N
1552971335.1,286047001.9,N
1552971355.9,286047001.9,N
1552971375.7,286047004.1,N
1552971395.5,286047001.8,N
1552971415.4,286047001.5,N
1552971435.2,286047002.6,N
1552971455.1,286047004.4,N
1552971456.0,286047004.4,N
1552971475.8,286047003.4,N
1552971495.6,286047001.6,N
1552971515.5,286047001.4,N
1552971535.3,286047003.4,N
1552971555.1,286047003.4,N
1552971575.9,286047001.7,N
1552971595.7,286047003.6,N
